Location: Unspecified
(0.0000°N, 0.0000°E)
Time: 16:11:34
(UTC+02:00)

Cosmos 1954 Rocket - Visible Passes

Search period start: 22 September 2014 00:00
Search period end: 02 October 2014 00:00
Orbit: 754 x 783 km, 74.0° (Epoch: 21 September)

Date Brightness Start Highest point End Pass type
(mag) Time Alt. Az. Time Alt. Az. Time Alt. Az.
22 Sep 4.1 06:38:54 10° N 06:44:11 84° ENE 06:49:30 10° SSE visible
23 Sep 5.3 06:02:20 10° N 06:07:16 40° ENE 06:12:13 10° SSE visible
24 Sep 6.4 05:26:33 10° NNE 05:30:20 20° ENE 05:34:08 10° SE visible
24 Sep 5.0 07:07:54 10° NW 07:12:06 24° WSW 07:16:20 10° SSW visible
25 Sep 4.2 06:32:12 24° NW 06:35:10 49° WSW 06:40:17 10° S visible
26 Sep 4.0 05:58:31 78° ESE 05:58:31 78° ESE 06:03:34 10° SSE visible
27 Sep 6.0 05:24:06 23° SE 05:24:06 23° SE 05:26:15 10° SE visible
27 Sep 5.9 07:04:29 11° WSW 07:04:29 11° WSW 07:05:03 10° SW visible
28 Sep 6.0 06:29:38 14° SSW 06:29:38 14° SSW 06:30:27 10° SSW visible
